| time (UTC) | temp C | wind direction | speed KPH | gust KPH | rain 1hr cm | rain 24hr cm | rain mn cm | humidity % | barometer mb |
| 20260905043536 | 11 | 338 | 8.0 | 16.1 | 0.00 | 0.00 | 0.00 | 91 | 1010.5 |
| 20260905042534 | 12 | 322 | 11.3 | 27.4 | 0.00 | 0.00 | 0.00 | 91 | 1011.0 |
| 20260905041521 | 12 | 325 | 9.7 | 20.9 | 0.00 | 0.00 | 0.00 | 90 | 1011.4 |
| 20260905040535 | 12 | 294 | 9.7 | 17.7 | 0.00 | 0.00 | 0.00 | 89 | 1011.5 |
| 20260905035543 | 12 | 314 | 11.3 | 24.1 | 0.00 | 0.00 | 0.00 | 86 | 1011.8 |
| 20260905034522 | 12 | 289 | 9.7 | 25.7 | 0.00 | 0.00 | 0.00 | 87 | 1011.8 |
| 20260905033530 | 12 | 277 | 11.3 | 22.5 | 0.00 | 0.00 | 0.00 | 86 | 1011.9 |
| 20260905032534 | 13 | 284 | 12.9 | 30.6 | 0.00 | 0.00 | 0.00 | 84 | 1011.6 |
| 20260905031520 | 13 | 301 | 14.5 | 27.4 | 0.00 | 0.00 | 0.00 | 80 | 1012.0 |
| 20260905030542 | 14 | 312 | 9.7 | 24.1 | 0.00 | 0.00 | 0.00 | 77 | 1011.4 |
| 20260905025540 | 14 | 314 | 14.5 | 25.7 | 0.00 | 0.00 | 0.00 | 79 | 1011.4 |
| 20260905024519 | 14 | 297 | 14.5 | 29.0 | 0.00 | 0.00 | 0.00 | 78 | 1011.6 |
| 20260905023525 | 14 | 286 | 11.3 | 22.5 | 0.00 | 0.00 | 0.00 | 76 | 1011.6 |
| 20260905022520 | 14 | 290 | 9.7 | 16.1 | 0.00 | 0.00 | 0.00 | 83 | 1011.3 |
| 20260905021526 | 14 | 325 | 9.7 | 19.3 | 0.00 | 0.00 | 0.00 | 83 | 1011.3 |
| 20260905020533 | 13 | 332 | 8.0 | 20.9 | 0.00 | 0.00 | 0.00 | 84 | 1011.4 |
| 20260905015518 | 13 | 328 | 8.0 | 14.5 | 0.00 | 0.00 | 0.00 | 86 | 1011.5 |
| 20260905014524 | 13 | 345 | 6.4 | 12.9 | 0.00 | 0.00 | 0.00 | 87 | 1011.5 |
| 20260905013531 | 13 | 334 | 4.8 | 11.3 | 0.00 | 0.00 | 0.00 | 89 | 1011.9 |
| 20260905012535 | 13 | 348 | 4.8 | 11.3 | 0.00 | 0.00 | 0.00 | 90 | 1012.2 |
| 20260905011523 | 13 | 351 | 6.4 | 17.7 | 0.00 | 0.00 | 0.00 | 90 | 1012.1 |
| 20260905010529 | 12 | 335 | 4.8 | 9.7 | 0.00 | 0.00 | 0.00 | 92 | 1012.2 |
| 20260905005535 | 12 | 2 | 3.2 | 8.0 | 0.00 | 0.00 | 0.00 | 92 | 1012.4 |
| 20260905004523 | 12 | 2 | 4.8 | 9.7 | 0.00 | 0.00 | 0.00 | 93 | 1012.5 |
| 20260905003536 | 12 | 7 | 4.8 | 8.0 | 0.00 | 0.00 | 0.00 | 93 | 1012.8 |
| 20260905002517 | 11 | 2 | 4.8 | 12.9 | 0.00 | 0.00 | 0.00 | 92 | 1013.0 |
| 20260905001523 | 12 | 353 | 3.2 | 9.7 | 0.00 | 0.00 | 0.00 | 91 | 1013.5 |
| 20260905000539 | 12 | 346 | 3.2 | 9.7 | 0.00 | 0.00 | 0.00 | 90 | 1013.8 |
| 20260904235517 | 12 | 305 | 4.8 | 9.7 | 0.00 | 0.00 | 0.00 | 90 | 1013.9 |
| 20260904234523 | 12 | 334 | 6.4 | 12.9 | 0.00 | 0.00 | 0.00 | 89 | 1013.8 |
| 20260904233530 | 12 | 347 | 6.4 | 9.7 | 0.00 | 0.00 | 0.00 | 88 | 1013.4 |
| 20260904232536 | 11 | 350 | 4.8 | 9.7 | 0.00 | 0.00 | 0.00 | 90 | 1013.1 |
| 20260904231521 | 11 | 6 | 4.8 | 9.7 | 0.00 | 0.00 | 0.00 | 90 | 1013.6 |
| 20260904230528 | 12 | 360 | 6.4 | 11.3 | 0.00 | 0.00 | 0.00 | 86 | 1013.8 |
| 20260904225535 | 11 | 355 | 4.8 | 8.0 | 0.00 | 0.00 | 0.00 | 87 | 1014.1 |
| 20260904224521 | 11 | 359 | 6.4 | 11.3 | 0.00 | 0.00 | 0.00 | 87 | 1014.0 |
| 20260904223528 | 11 | 3 | 6.4 | 11.3 | 0.00 | 0.00 | 0.00 | 85 | 1014.1 |
| 20260904222534 | 12 | 357 | 4.8 | 9.7 | 0.00 | 0.00 | 0.00 | 82 | 1014.5 |
| 20260904221520 | 13 | 349 | 6.4 | 19.3 | 0.00 | 0.00 | 0.00 | 76 | 1014.6 |
| 20260904220526 | 12 | 351 | 4.8 | 9.7 | 0.00 | 0.00 | 0.00 | 78 | 1014.6 |
| 20260904215532 | 12 | 360 | 6.4 | 11.3 | 0.00 | 0.00 | 0.00 | 79 | 1014.6 |
| 20260904214517 | 11 | 9 | 6.4 | 9.7 | 0.00 | 0.00 | 0.00 | 80 | 1014.5 |
| 20260904213524 | 11 | 7 | 4.8 | 9.7 | 0.00 | 0.00 | 0.00 | 79 | 1014.5 |
| 20260904212537 | 11 | 31 | 3.2 | 6.4 | 0.00 | 0.00 | 0.00 | 80 | 1014.5 |
| 20260904211543 | 10 | 32 | 1.6 | 6.4 | 0.00 | 0.00 | 0.00 | 82 | 1014.4 |
| 20260904210521 | 10 | 38 | 3.2 | 6.4 | 0.00 | 0.00 | 0.00 | 83 | 1014.1 |
| 20260904205535 | 10 | 27 | 3.2 | 9.7 | 0.00 | 0.00 | 0.00 | 83 | 1014.2 |
| 20260904204533 | 10 | 12 | 4.8 | 9.7 | 0.00 | 0.00 | 0.00 | 84 | 1014.6 |
| 20260904203522 | 9 | 12 | 3.2 | 6.4 | 0.00 | 0.00 | 0.00 | 86 | 1014.5 |
| 20260904202527 | 9 | 25 | 3.2 | 8.0 | 0.00 | 0.00 | 0.00 | 87 | 1014.6 |
| 20260904201542 | 9 | 27 | 3.2 | 6.4 | 0.00 | 0.00 | 0.00 | 87 | 1014.4 |
| 20260904200523 | 9 | 33 | 3.2 | 6.4 | 0.00 | 0.00 | 0.00 | 87 | 1014.5 |
| 20260904195532 | 9 | 27 | 3.2 | 6.4 | 0.00 | 0.00 | 0.00 | 88 | 1014.5 |
| 20260904194526 | 9 | 43 | 1.6 | 4.8 | 0.00 | 0.00 | 0.00 | 88 | 1014.8 |
| 20260904193526 | 9 | 43 | 3.2 | 6.4 | 0.00 | 0.00 | 0.00 | 88 | 1015.1 |
| 20260904192542 | 9 | 47 | 3.2 | 6.4 | 0.00 | 0.00 | 0.00 | 88 | 1015.0 |
| 20260904191522 | 10 | 79 | 1.6 | 4.8 | 0.00 | 0.00 | 0.00 | 86 | 1015.2 |
| 20260904190531 | 10 | 341 | 1.6 | 4.8 | 0.00 | 0.00 | 0.00 | 86 | 1015.1 |
| 20260904185520 | 10 | 55 | 0.0 | 4.8 | 0.00 | 0.00 | 0.00 | 86 | 1015.0 |
| 20260904184526 | 10 | 332 | 1.6 | 6.4 | 0.00 | 0.00 | 0.00 | 86 | 1015.1 |
| 20260904183533 | 10 | 359 | 3.2 | 8.0 | 0.00 | 0.00 | 0.00 | 86 | 1015.0 |
| 20260904182522 | 10 | 358 | 4.8 | 8.0 | 0.00 | 0.00 | 0.00 | 86 | 1015.4 |
| 20260904181530 | 10 | 0 | 4.8 | 6.4 | 0.00 | 0.00 | 0.00 | 86 | 1015.1 |
| 20260904180519 | 10 | 28 | 3.2 | 6.4 | 0.00 | 0.00 | 0.00 | 86 | 1014.8 |
| 20260904175526 | 10 | 34 | 3.2 | 6.4 | 0.00 | 0.00 | 0.00 | 85 | 1015.2 |
| 20260904174534 | 10 | 19 | 6.4 | 9.7 | 0.00 | 0.00 | 0.00 | 84 | 1015.2 |
| 20260904173522 | 10 | 10 | 4.8 | 8.0 | 0.00 | 0.00 | 0.00 | 84 | 1015.3 |
| 20260904172530 | 10 | 2 | 3.2 | 9.7 | 0.00 | 0.00 | 0.00 | 84 | 1015.5 |
| 20260904171518 | 10 | 357 | 4.8 | 8.0 | 0.00 | 0.00 | 0.00 | 85 | 1015.3 |
| 20260904170526 | 10 | 13 | 3.2 | 8.0 | 0.00 | 0.00 | 0.00 | 85 | 1015.4 |
| 20260904165534 | 10 | 28 | 3.2 | 6.4 | 0.00 | 0.00 | 0.00 | 86 | 1015.7 |
| 20260904164537 | 10 | 76 | 3.2 | 4.8 | 0.00 | 0.00 | 0.00 | 87 | 1016.1 |
| 20260904163531 | 10 | 40 | 3.2 | 6.4 | 0.00 | 0.00 | 0.00 | 87 | 1016.2 |
| 20260904162517 | 10 | 12 | 3.2 | 8.0 | 0.00 | 0.00 | 0.00 | 87 | 1016.3 |
| 20260904161524 | 10 | 27 | 1.6 | 6.4 | 0.00 | 0.00 | 0.00 | 86 | 1016.4 |
| 20260904160531 | 11 | 17 | 3.2 | 6.4 | 0.00 | 0.00 | 0.00 | 82 | 1016.7 |
| 20260904155518 | 11 | 331 | 8.0 | 17.7 | 0.00 | 0.00 | 0.00 | 82 | 1016.7 |
| 20260904154525 | 10 | 316 | 4.8 | 12.9 | 0.00 | 0.00 | 0.00 | 85 | 1016.9 |
| 20260904153531 | 10 | 335 | 1.6 | 4.8 | 0.00 | 0.00 | 0.00 | 86 | 1016.5 |
| 20260904152518 | 10 | 344 | 4.8 | 9.7 | 0.00 | 0.00 | 0.00 | 85 | 1017.0 |
| 20260904151524 | 11 | 327 | 4.8 | 11.3 | 0.00 | 0.00 | 0.00 | 83 | 1017.1 |
| 20260904150532 | 11 | 321 | 8.0 | 16.1 | 0.00 | 0.00 | 0.00 | 83 | 1017.0 |
| 20260904145521 | 11 | 321 | 8.0 | 17.7 | 0.00 | 0.00 | 0.00 | 84 | 1017.3 |
| 20260904144530 | 10 | 319 | 6.4 | 14.5 | 0.00 | 0.00 | 0.00 | 84 | 1017.2 |
| 20260904143517 | 10 | 325 | 8.0 | 12.9 | 0.00 | 0.00 | 0.00 | 84 | 1017.1 |
| 20260904142524 | 10 | 328 | 9.7 | 19.3 | 0.00 | 0.00 | 0.00 | 85 | 1017.3 |
| 20260904141530 | 10 | 314 | 8.0 | 17.7 | 0.00 | 0.00 | 0.00 | 85 | 1017.4 |
| 20260904140517 | 10 | 310 | 8.0 | 16.1 | 0.00 | 0.00 | 0.00 | 86 | 1017.4 |
| 20260904135524 | 10 | 311 | 11.3 | 16.1 | 0.00 | 0.00 | 0.00 | 86 | 1017.5 |
| 20260904134538 | 10 | 312 | 6.4 | 11.3 | 0.00 | 0.00 | 0.00 | 86 | 1017.5 |
| 20260904133537 | 10 | 319 | 6.4 | 11.3 | 0.00 | 0.00 | 0.00 | 85 | 1017.6 |
| 20260904132523 | 11 | 300 | 6.4 | 12.9 | 0.00 | 0.00 | 0.00 | 85 | 1017.7 |
| 20260904131530 | 11 | 331 | 6.4 | 17.7 | 0.00 | 0.00 | 0.00 | 85 | 1017.7 |
| 20260904130536 | 11 | 307 | 6.4 | 11.3 | 0.00 | 0.00 | 0.00 | 85 | 1018.1 |
| 20260904125528 | 11 | 308 | 6.4 | 12.9 | 0.00 | 0.00 | 0.00 | 85 | 1018.3 |
| 20260904124528 | 11 | 308 | 6.4 | 11.3 | 0.00 | 0.00 | 0.00 | 85 | 1018.5 |
| 20260904123541 | 11 | 311 | 6.4 | 14.5 | 0.00 | 0.00 | 0.00 | 84 | 1018.6 |
| 20260904122518 | 11 | 299 | 6.4 | 12.9 | 0.00 | 0.00 | 0.00 | 84 | 1018.7 |
| 20260904121525 | 11 | 303 | 6.4 | 11.3 | 0.00 | 0.00 | 0.00 | 84 | 1019.0 |
| 20260904120533 | 11 | 312 | 6.4 | 12.9 | 0.00 | 0.00 | 0.00 | 82 | 1018.9 |
| 20260904115519 | 11 | 302 | 6.4 | 11.3 | 0.00 | 0.00 | 0.00 | 82 | 1019.0 |
| 20260904114525 | 11 | 297 | 6.4 | 12.9 | 0.00 | 0.00 | 0.00 | 81 | 1019.1 |
| 20260904113531 | 12 | 292 | 6.4 | 12.9 | 0.00 | 0.00 | 0.00 | 81 | 1019.1 |
| 20260904112518 | 12 | 301 | 6.4 | 12.9 | 0.00 | 0.00 | 0.00 | 80 | 1019.3 |
| 20260904111525 | 12 | 296 | 8.0 | 14.5 | 0.00 | 0.00 | 0.00 | 79 | 1019.4 |
| 20260904110532 | 12 | 300 | 9.7 | 17.7 | 0.00 | 0.00 | 0.00 | 80 | 1019.4 |
| 20260904105518 | 12 | 296 | 8.0 | 14.5 | 0.00 | 0.00 | 0.00 | 80 | 1019.5 |
| 20260904104525 | 12 | 301 | 9.7 | 17.7 | 0.00 | 0.00 | 0.00 | 80 | 1019.5 |
| 20260904103531 | 12 | 305 | 8.0 | 14.5 | 0.00 | 0.00 | 0.00 | 80 | 1019.5 |
| 20260904102518 | 12 | 307 | 9.7 | 16.1 | 0.00 | 0.00 | 0.00 | 79 | 1019.5 |
| 20260904101536 | 12 | 314 | 11.3 | 17.7 | 0.00 | 0.00 | 0.00 | 79 | 1019.4 |
| 20260904100532 | 12 | 308 | 9.7 | 17.7 | 0.00 | 0.00 | 0.00 | 79 | 1019.3 |
| 20260904095518 | 12 | 309 | 9.7 | 19.3 | 0.00 | 0.00 | 0.00 | 78 | 1019.2 |
| 20260904094525 | 12 | 313 | 11.3 | 20.9 | 0.00 | 0.00 | 0.00 | 78 | 1019.1 |
| 20260904093531 | 12 | 304 | 8.0 | 17.7 | 0.00 | 0.00 | 0.00 | 77 | 1019.3 |
| 20260904092516 | 12 | 307 | 8.0 | 16.1 | 0.00 | 0.00 | 0.00 | 77 | 1019.2 |
| 20260904091523 | 12 | 318 | 8.0 | 14.5 | 0.00 | 0.00 | 0.00 | 76 | 1019.2 |
| 20260904090530 | 12 | 305 | 8.0 | 16.1 | 0.00 | 0.00 | 0.00 | 75 | 1019.4 |
| 20260904085517 | 12 | 306 | 8.0 | 14.5 | 0.00 | 0.00 | 0.00 | 72 | 1019.3 |
| 20260904084524 | 12 | 292 | 8.0 | 19.3 | 0.00 | 0.00 | 0.00 | 72 | 1019.3 |
| 20260904083530 | 12 | 303 | 11.3 | 22.5 | 0.00 | 0.00 | 0.00 | 71 | 1019.2 |
| 20260904082516 | 12 | 291 | 8.0 | 19.3 | 0.00 | 0.00 | 0.00 | 71 | 1019.2 |
| 20260904081531 | 13 | 291 | 9.7 | 17.7 | 0.00 | 0.00 | 0.00 | 69 | 1019.0 |
| 20260904080528 | 13 | 278 | 8.0 | 14.5 | 0.00 | 0.00 | 0.00 | 70 | 1019.0 |
| 20260904075535 | 13 | 297 | 9.7 | 17.7 | 0.00 | 0.00 | 0.00 | 69 | 1019.0 |
| 20260904074519 | 13 | 275 | 9.7 | 12.9 | 0.00 | 0.00 | 0.00 | 68 | 1018.8 |
| 20260904073524 | 13 | 287 | 9.7 | 20.9 | 0.00 | 0.00 | 0.00 | 66 | 1018.9 |
| 20260904072529 | 13 | 280 | 11.3 | 25.7 | 0.00 | 0.00 | 0.00 | 65 | 1018.8 |
| 20260904071535 | 13 | 283 | 8.0 | 14.5 | 0.00 | 0.00 | 0.00 | 64 | 1018.7 |
| 20260904070523 | 14 | 281 | 9.7 | 17.7 | 0.00 | 0.00 | 0.00 | 64 | 1018.5 |
| 20260904065542 | 14 | 284 | 9.7 | 17.7 | 0.00 | 0.00 | 0.00 | 63 | 1018.3 |
| 20260904064535 | 14 | 277 | 9.7 | 14.5 | 0.00 | 0.00 | 0.00 | 62 | 1018.3 |
| 20260904063519 | 14 | 259 | 6.4 | 12.9 | 0.00 | 0.00 | 0.00 | 62 | 1018.4 |
| 20260904062528 | 14 | 270 | 12.9 | 24.1 | 0.00 | 0.00 | 0.00 | 61 | 1018.2 |
| 20260904061532 | 15 | 274 | 8.0 | 16.1 | 0.00 | 0.00 | 0.00 | 60 | 1018.1 |
| 20260904060518 | 14 | 272 | 9.7 | 20.9 | 0.00 | 0.00 | 0.00 | 59 | 1018.2 |
| 20260904055524 | 14 | 280 | 8.0 | 19.3 | 0.00 | 0.00 | 0.00 | 59 | 1018.3 |
| 20260904054530 | 14 | 290 | 9.7 | 19.3 | 0.00 | 0.00 | 0.00 | 58 | 1018.2 |
| 20260904053516 | 15 | 279 | 11.3 | 20.9 | 0.00 | 0.00 | 0.00 | 57 | 1018.2 |
| 20260904052523 | 15 | 261 | 12.9 | 19.3 | 0.00 | 0.00 | 0.00 | 56 | 1018.2 |
| 20260904051529 | 15 | 262 | 12.9 | 27.4 | 0.00 | 0.00 | 0.00 | 56 | 1018.4 |
| 20260904050516 | 15 | 275 | 16.1 | 30.6 | 0.00 | 0.00 | 0.00 | 54 | 1018.2 |
| 20260904045523 | 15 | 264 | 9.7 | 22.5 | 0.00 | 0.00 | 0.00 | 52 | 1018.2 |
| 20260904044531 | 15 | 261 | 12.9 | 24.1 | 0.00 | 0.00 | 0.00 | 50 | 1018.3 |